Vorticity
6 5 5 5 4 4 4 3 3 2 2 3 4 3 3 4 6 7 7 5 6 6 8 7 5 7 6 6 9 9 7 2 2 4 3 5 7 15 15 17 10 1 6 5 4
5 5 6 6 6 6 7 7 8 8 7 7 6 5 4 4 5 3 4 15 16 14 12 17 11 5 5 8 6 6 5 3 11 8 10 7 6 6 7 17 5 10 9 3 3
4 4 4 3 4 4 5 6 6 6 6 7 8 8 10 9 9 23 29 10 -5 -5 3 9 8 14 10 7 4 3 -2 6 6 9 8 7 6 10 8 8 9 11 -2 5 6
5 5 6 7 7 6 6 6 7 7 8 8 7 6 5 7 18 -15 -8 1 7 8 7 9 8 8 5 3 11 12 7 7 4 6 9 9 11 7 9 3 5 9 15 4 3
4 4 5 6 6 6 7 7 6 6 7 8 8 7 8 7 7 8 14 12 10 7 4 4 4 4 4 9 12 7 6 10 10 8 6 8 4 6 9 7 9 8 10 12 8
4 5 5 6 6 5 5 5 4 6 8 9 9 9 10 7 14 5 4 7 7 9 9 7 7 6 6 6 6 8 8 9 8 11 13 12 7 8 6 9 1 8 6 6 2
5 4 5 7 6 7 3 1 2 2 6 9 11 10 8 13 11 11 7 7 12 15 15 13 10 9 9 12 23 18 16 11 8 6 4 3 6 6 11 7 8 3 3 3 3
5 5 6 6 5 2 0 5 12 14 11 9 10 8 8 10 14 22 28 13 7 10 14 15 14 5 -1 12 8 3 -5 0 4 15 25 14 8 -2 3 18 14 6 5 4 2
6 7 7 7 3 3 4 10 10 10 12 14 12 17 24 29 23 1 -8 -3 7 4 -4 -5 -5 -6 -1 1 8 23 0 7 9 3 3 4 0 11 18 16 21 14 14 20 8
6 6 7 3 3 3 8 12 12 14 11 21 21 8 -2 -1 2 7 8 3 -6 10 29 27 25 16 10 2 -20 -5 6 8 4 4 7 12 10 16 17 12 9 8 20 20 7
8 7 4 4 4 6 12 12 16 16 -1 19 -1 13 12 14 13 17 30 34 33 26 21 18 20 21 51 37 31 14 7 5 6 4 5 3 5 4 8 9 8 10 10 9 20
7 6 5 5 6 12 11 10 9 -3 4 18 19 26 31 36 37 25 9 11 -7 3 5 8 -1 12 11 15 25 16 6 3 7 21 31 18 7 2 -3 0 4 8 8 8 9
5 5 5 8 10 13 11 9 9 7 10 30 36 28 24 12 11 -13 7 -3 1 2 5 5 -8 23 11 8 8 10 9 8 12 19 16 13 20 7 7 8 10 4 4 13 8
7 7 6 9 13 9 11 11 12 9 42 37 27 7 5 2 6 -14 3 -13 -1 5 11 24 7 3 1 6 12 9 16 16 9 23 8 29 1 16 16 15 13 25 29 11 6
7 3 6 10 8 12 10 12 12 15 22 22 4 6 6 -10 -6 4 -5 17 19 14 10 -14 5 5 3 3 8 0 20 11 4 14 24 15 12 42 31 28 26 13 9 11 17
5 6 11 14 13 13 12 13 15 31 11 8 5 8 0 -8 -2 -3 1 32 4 19 10 6 17 12 12 14 2 5 11 30 20 24 24 14 -19 26 42 22 12 6 6 7 7
8 11 15 12 12 12 13 20 34 7 8 18 9 7 -2 -11 -7 13 27 -3 20 17 8 4 28 27 20 16 24 24 15 10 15 13 -2 31 42 -61 -9 6 16 27 12 11 21
12 10 10 12 13 11 13 19 8 4 -11 -24 -23 -10 4 9 40 19 1 8 13 27 12 19 24 -4 -1 -10 -1 5 14 -28 13 4 0 39 22 -17 17 16 13 9 1 1 15
9 11 8 12 6 15 8 23 -23 -9 26 13 12 11 51 22 -23 9 17 31 15 -4 -1 11 15 -23 -5 14 21 27 27 28 -23 8 10 8 19 3 10 11 13 16 23 22 16
10 16 11 12 6 13 22 -4 -15 -3 -4 0 1 -4 -9 3 17 6 13 0 16 -7 -2 19 11 6 13 24 18 12 -7 16 14 11 8 20 7 -2 15 12 7 10 14 13 11
20 14 8 38 0 34 3 -16 11 14 25 13 12 -12 -10 1 8 15 -6 -23 28 22 15 -17 38 -2 -1 2 14 23 9 12 7 -11 5 6 6 5 12 14 12 16 15 17 17
17 10 19 -19 8 -3 -21 -3 11 18 -8 10 12 -9 24 13 -16 26 9 -34 14 -23 4 13 7 6 3 1 14 15 14 21 -18 24 9 -9 -2 7 4 6 15 13 10 14 15
8 5 21 13 -1 14 9 -20 24 0 8 5 14 5 12 -3 30 9 28 5 24 4 -2 -25 7 13 22 22 17 20 15 16 9 4 8 5 11 10 11 10 11 14 14 8 11
10 10 6 4 22 11 28 -23 14 14 1 15 17 -10 17 11 6 -30 7 10 5 0 6 -2 31 -17 -33 -38 4 9 7 11 17 5 -1 10 13 8 12 11 9 10 13 15 12
5 -4 10 -11 -18 -6 -13 43 -26 5 7 -12 12 30 5 25 9 -13 19 17 12 6 5 17 0 18 -10 18 22 11 17 34 27 15 5 21 10 14 11 10 11 10 10 11 16
20 5 7 17 18 46 38 -27 4 21 12 1 12 -3 -13 25 -9 19 -26 20 15 30 34 37 -6 13 14 21 23 13 23 11 12 14 20 17 0 17 16 11 6 3 5 6 7
13 17 8 9 -15 -3 60 25 7 -7 42 41 8 11 28 25 24 18 -9 35 0 18 19 2 28 30 28 14 18 -14 14 18 8 21 2 6 12 3 9 11 11 7 5 6 6
Height
3148 3146 3144 3142 3140 3137 3135 3131 3130 3127 3124 3123 3121 3117 3115 3112 3111 3109 3107 3106 3105 3102 3100 3100 3098 3100 3098 3097 3097 3097 3091 3084 3086 3089 3088 3093 3095 3096 3096 3096 3098 3100 3101 3105 3108
3146 3143 3142 3140 3136 3133 3130 3128 3125 3121 3118 3118 3115 3115 3111 3108 3108 3105 3105 3101 3100 3098 3098 3095 3093 3093 3092 3092 3091 3089 3079 3078 3082 3086 3086 3088 3088 3091 3089 3089 3087 3090 3094 3099 3101
3144 3142 3139 3135 3133 3131 3128 3125 3121 3118 3117 3113 3111 3108 3103 3101 3100 3099 3098 3097 3095 3093 3092 3091 3089 3087 3084 3084 3084 3079 3070 3077 3077 3079 3080 3080 3080 3082 3082 3076 3080 3087 3090 3092 3094
3141 3139 3136 3134 3131 3128 3124 3120 3116 3114 3112 3109 3106 3102 3100 3097 3097 3096 3092 3091 3089 3087 3085 3084 3084 3081 3078 3078 3078 3073 3069 3074 3070 3073 3073 3073 3074 3074 3073 3074 3076 3080 3081 3084 3087
3139 3136 3133 3130 3126 3122 3119 3116 3112 3109 3105 3102 3099 3097 3093 3092 3091 3087 3085 3083 3083 3080 3077 3077 3078 3076 3070 3070 3072 3065 3066 3067 3065 3065 3065 3066 3064 3066 3063 3068 3069 3071 3073 3077 3080
3136 3133 3129 3125 3121 3118 3114 3110 3106 3103 3100 3096 3092 3088 3085 3084 3081 3080 3078 3076 3075 3072 3071 3070 3071 3069 3063 3062 3064 3062 3059 3058 3057 3057 3058 3059 3056 3055 3055 3062 3063 3064 3067 3070 3073
3130 3126 3123 3119 3115 3113 3110 3106 3100 3097 3092 3088 3085 3081 3078 3080 3074 3072 3070 3067 3065 3064 3064 3063 3064 3061 3058 3056 3055 3057 3053 3050 3048 3052 3052 3054 3044 3038 3049 3054 3056 3058 3059 3062 3065
3124 3120 3118 3114 3110 3107 3103 3098 3092 3089 3085 3081 3077 3073 3069 3068 3064 3063 3061 3059 3058 3057 3056 3056 3055 3053 3051 3052 3051 3050 3049 3041 3042 3045 3046 3047 3028 3038 3043 3044 3048 3050 3052 3053 3056
3119 3117 3113 3107 3103 3100 3096 3091 3084 3079 3077 3073 3069 3066 3063 3059 3058 3056 3055 3054 3053 3052 3051 3050 3049 3046 3045 3048 3046 3042 3037 3037 3033 3039 3041 3039 3026 3032 3036 3035 3037 3041 3042 3043 3044
3114 3110 3105 3101 3096 3090 3085 3081 3076 3070 3069 3066 3062 3061 3057 3055 3053 3051 3049 3048 3047 3046 3045 3042 3040 3037 3038 3040 3035 3035 3034 3031 3027 3031 3031 3030 3022 3026 3029 3027 3028 3030 3033 3034 3035
3104 3101 3097 3093 3088 3082 3076 3072 3068 3063 3061 3060 3057 3047 3046 3045 3043 3042 3041 3039 3038 3040 3036 3033 3033 3031 3031 3031 3031 3031 3029 3024 3023 3026 3025 3022 3016 3016 3021 3018 3018 3021 3024 3026 3028
3097 3094 3090 3085 3081 3076 3069 3063 3058 3052 3038 3053 3042 3036 3033 3035 3036 3036 3037 3037 3037 3033 3032 3031 3026 3028 3025 3025 3023 3024 3020 3012 3013 3018 3019 3014 3006 3006 3008 3008 3012 3014 3015 3019 3021
3090 3086 3083 3079 3074 3070 3066 3061 3055 3047 3037 3032 3029 3026 3029 3031 3031 3032 3033 3031 3031 3029 3025 3021 3023 3021 3020 3018 3016 3013 3014 3010 3011 3010 3009 3008 2994 2992 2994 2998 3003 3005 3009 3009 3012
3083 3080 3076 3073 3070 3063 3059 3056 3051 3046 3036 3028 3025 3025 3025 3026 3028 3027 3026 3028 3024 3022 3021 3015 3015 3015 3014 3010 3013 3006 3009 3007 3007 3006 3003 3005 2985 2982 2985 2988 2991 2997 3000 3003 3005
3077 3073 3069 3065 3063 3058 3055 3049 3045 3045 3043 3026 3025 3023 3022 3023 3023 3023 3022 3020 3019 3017 3016 3011 3009 3008 3005 3004 3006 3001 3003 3002 2999 2998 2998 2998 3000 2977 2982 2983 2985 2986 2987 2989 2993
3070 3067 3062 3058 3055 3051 3047 3044 3043 3045 3032 3022 3020 3019 3020 3019 3018 3017 3016 3015 3012 3007 3007 3002 3004 3000 2996 2997 2998 2998 2999 2997 2994 2995 2992 2979 2990 2972 2977 2975 2977 2978 2978 2979 2983
3060 3056 3053 3050 3048 3045 3043 3041 3044 3038 3027 3022 3019 3017 3015 3015 3013 3012 3010 3009 3008 3003 2998 2997 2995 2992 2991 2991 2992 2993 2995 2996 2995 2992 2979 2975 2979 2973 2971 2971 2969 2969 2969 2970 2974
3052 3047 3045 3044 3041 3040 3038 3041 3037 3026 3022 3018 3017 3014 3011 3009 3006 3007 3004 3002 3000 2998 2995 2991 2988 2988 2988 2988 2989 2987 2990 2990 2985 2983 2977 2973 2971 2966 2967 2965 2965 2963 2964 2965 2966
3044 3039 3035 3039 3036 3034 3033 3029 3021 3018 3016 3014 3013 3007 3004 3003 3004 3002 2998 2995 2993 2994 2994 2991 2984 2984 2984 2983 2985 2982 2981 2983 2982 2979 2976 2969 2966 2966 2964 2962 2961 2961 2960 2960 2962
3036 3029 3025 3029 3029 3028 3024 3016 3011 3010 3011 3010 3007 3005 2999 2998 2999 2997 2992 2990 2989 2989 2988 2985 2981 2978 2978 2978 2978 2977 2978 2979 2979 2976 2971 2960 2961 2958 2959 2959 2958 2957 2957 2958 2959
3028 3024 3019 3019 3018 3017 3011 3007 3004 3005 3008 3005 2999 2997 2994 2993 2991 2990 2986 2985 2983 2982 2983 2981 2978 2973 2973 2971 2971 2972 2971 2972 2971 2969 2963 2959 2962 2960 2958 2957 2957 2956 2955 2956 2957
3020 3018 3014 3013 3012 3004 2999 2997 2998 2996 2998 2995 2991 2989 2987 2986 2981 2981 2977 2978 2979 2977 2976 2976 2972 2966 2967 2966 2965 2965 2965 2966 2966 2963 2959 2955 2963 2960 2959 2958 2957 2955 2954 2954 2954
3012 3008 3006 3006 2999 2993 2991 2988 2987 2988 2987 2985 2982 2980 2979 2977 2977 2970 2970 2970 2971 2970 2968 2967 2965 2962 2960 2962 2961 2960 2960 2960 2960 2959 2954 2955 2960 2958 2958 2957 2955 2954 2953 2953 2951
3008 3001 2996 2994 2988 2988 2983 2980 2976 2975 2976 2975 2972 2973 2970 2968 2965 2960 2961 2962 2962 2962 2961 2960 2957 2957 2956 2956 2957 2955 2953 2953 2954 2954 2950 2951 2953 2955 2955 2955 2954 2953 2952 2952 2951
2999 2990 2987 2982 2978 2977 2976 2971 2966 2966 2966 2965 2960 2959 2960 2958 2956 2952 2953 2954 2953 2953 2952 2952 2949 2950 2948 2948 2948 2947 2946 2946 2948 2947 2949 2950 2951 2953 2953 2953 2952 2951 2950 2950 2949
2989 2986 2979 2972 2971 2966 2962 2957 2955 2953 2955 2952 2950 2951 2951 2948 2948 2945 2944 2945 2943 2941 2942 2940 2938 2940 2940 2939 2942 2942 2944 2945 2945 2946 2947 2949 2950 2951 2952 2951 2951 2950 2950 2949 2948
2977 2974 2971 2966 2963 2961 2955 2945 2944 2944 2945 2939 2938 2940 2940 2936 2935 2934 2934 2935 2934 2934 2933 2932 2930 2933 2932 2935 2939 2943 2946 2947 2949 2949 2950 2951 2953 2952 2952 2951 2950 2949 2948 2947 2946